[[{"header":{"parameterUnit":"m.s-1","parameterCategory":1,"la1":30.2991,"la2":30.254,"lo1":-89.0895,"lo2":-89.0444,"dy":0.0017,"dx":0.0017,"nx":28,"ny":28,"refTime":"2023-09-01T21:00:00:Z","depth":0,"parameterNumber":2,"parameterNumberName":"U-component_of_WINDS"},"data":[0,0,0,0,0,0,0,0,0,0,0,0,0,0,0,0,0,0,0,0,0,0,0,0,0,0,0,0,0,0,0,0,0,0,0,0,0,0,0,0,0,0,0,0,0,0,0,0,0,0,0,0,0,0,0,0,0,0,-2.3538,-2.3538,0,-2.3603,-2.3603,-2.3604,-2.3626,-2.3626,-2.3625,-2.3625,-2.369,-2.3692,-2.3694,0,0,0,0,0,0,0,0,0,0,0,0,0,-2.3431,-2.3433,-2.3538,-2.3538,-2.3539,-2.3602,-2.3603,-2.3604,-2.3626,-2.3626,-2.3625,-2.3625,-2.3689,-2.3692,-2.3694,0,0,0,0,0,0,0,0,0,0,0,0,0,-2.3485,-2.3433,-2.3537,-2.3558,-2.356,-2.3602,-2.3603,-2.3604,-2.3626,-2.3626,-2.3625,-2.3625,-2.3688,-2.3691,-2.3694,-2.372,0,0,-2.3703,-2.3704,0,0,0,0,0,0,0,0,-2.3481,-2.3488,-2.3554,-2.3556,-2.3559,-2.3606,-2.3589,-2.3643,-2.3626,-2.3601,-2.3625,-2.3625,-2.3662,-2.3667,-2.368,-2.3723,-2.3726,-2.3703,-2.3705,-2.3707,-2.3707,0,0,0,0,0,0,0,-2.3478,-2.3486,-2.3563,-2.3555,-2.3558,-2.3563,-2.357,-2.36,-2.3633,-2.3603,-2.3605,-2.3612,-2.3663,-2.3677,-2.3682,-2.3727,-2.3703,-2.3706,-2.3708,-2.3709,-2.3794,-2.3794,0,0,0,0,0,0,-2.3471,-2.3483,-2.3561,-2.3565,-2.3519,-2.3565,-2.3573,-2.3591,-2.3633,-2.3639,-2.3613,-2.3613,-2.3672,-2.3678,-2.3684,-2.3717,-2.3706,-2.3709,-2.3711,-2.3793,-2.3794,-2.3795,0,0,0,0,0,0,-2.3468,-2.3478,-2.3559,-2.3524,-2.3535,-2.3568,-2.3587,-2.3593,-2.3607,-2.364,-2.3646,-2.3621,-2.3672,-2.368,-2.3711,-2.3719,-2.3711,-2.3713,-2.3793,-2.3794,-2.3794,-2.3783,0,0,0,0,0,0,-2.3465,-2.3477,-2.3487,-2.3524,-2.3537,-2.3585,-2.3588,-2.3594,-2.3612,-2.3613,-2.3649,-2.3655,-2.3673,-2.3707,-2.3714,-2.3723,-2.3716,-2.3792,-2.3793,-2.3794,-2.3782,-2.3783,-2.3783,0,0,0,0,0,-2.3461,-2.3481,-2.3488,-2.3497,-2.3551,-2.3585,-2.3592,-2.3613,-2.3612,-2.3623,-2.3644,-2.3653,-2.3717,-2.371,-2.3718,-2.3728,-2.3792,-2.3793,-2.3794,-2.3782,-2.3783,-2.3783,0,0,0,0,0,0,-2.3444,-2.3486,-2.3494,-2.3527,-2.3552,-2.3589,-2.3603,-2.3613,-2.3639,-2.3639,-2.3664,-2.3671,-2.37,-2.3718,-2.3708,-2.3755,-2.3755,-2.3758,-2.3743,-2.3744,-2.3744,-2.3739,-2.3718,0,0,0,0,0,-2.3443,-2.3468,-2.3504,-2.3529,-2.3542,-2.357,-2.3586,-2.36,-2.3627,-2.3638,-2.3662,-2.3687,-2.3713,-2.373,-2.3755,-2.3785,-2.3793,-2.3796,-2.3797,-2.3797,-2.3799,-2.3816,-2.3817,-2.3798,-2.3798,-2.3798,0,0,-2.3443,-2.347,-2.3484,-2.3527,-2.3548,-2.3573,-2.3579,-2.3605,-2.3623,-2.3642,-2.3673,-2.3691,-2.3721,-2.3751,-2.3766,-2.3767,-2.3806,-2.3799,-2.3798,-2.38,-2.3817,-2.3819,-2.382,-2.3799,-2.3799,-2.3799,0,0,-2.3456,-2.3479,-2.3502,-2.3523,-2.3556,-2.3575,-2.358,-2.3615,-2.3628,-2.366,-2.3674,-2.3696,-2.374,-2.3761,-2.3777,-2.3797,-2.3806,-2.3805,-2.3807,-2.3823,-2.3824,-2.3826,-2.3832,-2.3835,-2.3807,-2.3807,-2.3807,0,-2.3451,-2.349,-2.3512,-2.3537,-2.3555,-2.3574,-2.3597,-2.3617,-2.3656,-2.3667,-2.3668,-2.3723,-2.3745,-2.378,-2.3785,-2.3798,-2.3805,-2.3801,-2.3822,-2.3824,-2.3826,-2.3832,-2.3835,-2.3806,-2.3807,-2.3807,-2.3807,0,-2.3482,-2.3508,-2.3523,-2.3561,-2.3581,-2.3605,-2.363,-2.3648,-2.366,-2.3678,-2.371,-2.3736,-2.3767,-2.3777,-2.3789,-2.3814,-2.3813,-2.3818,-2.3818,-2.3827,-2.3833,-2.3836,-2.3806,-2.3806,-2.3806,-2.3806,0,0,-2.3485,-2.3535,-2.354,-2.3557,-2.3594,-2.3615,-2.3639,-2.367,-2.3684,-2.3711,-2.3731,-2.3768,-2.3773,-2.3791,-2.3806,-2.382,-2.3833,-2.3823,-2.3824,-2.3823,-2.3862,-2.3858,-2.386,-2.384,-2.3841,-2.3841,-2.3859,0,-2.3501,-2.3547,-2.3568,-2.3603,-2.3628,-2.3645,-2.3667,-2.3692,-2.371,-2.3732,-2.3752,-2.3778,-2.3782,-2.3793,-2.3808,-2.3829,-2.3841,-2.3828,-2.3859,-2.386,-2.385,-2.3864,-2.386,-2.3876,-2.3862,-2.3862,-2.3863,0,-2.3527,-2.3553,-2.3592,-2.3626,-2.3637,-2.3656,-2.3686,-2.3707,-2.3736,-2.3748,-2.3768,-2.3782,-2.3808,-2.3807,-2.3843,-2.3833,-2.3847,-2.3859,-2.386,-2.3864,-2.3861,-2.3867,-2.3881,-2.3884,-2.3867,-2.3867,-2.3866,0,-2.3524,-2.3569,-2.3598,-2.3612,-2.3653,-2.3666,-2.3683,-2.3711,-2.3729,-2.3755,-2.3766,-2.3795,-2.381,-2.3832,-2.3853,-2.385,-2.3886,-2.3887,-2.3896,-2.3896,-2.3903,-2.3902,-2.3919,-2.3913,-2.3913,-2.3913,-2.3913,0,-2.354,-2.3562,-2.3597,-2.3615,-2.364,-2.3664,-2.3689,-2.3707,-2.3732,-2.3753,-2.377,-2.379,-2.3817,-2.3839,-2.3856,-2.3883,-2.389,-2.39,-2.3904,-2.3898,-2.3897,-2.3907,-2.3906,-2.3913,-2.3913,-2.3913,-2.3913,0,-2.3541,-2.3565,-2.3597,-2.3634,-2.3643,-2.366,-2.3691,-2.3708,-2.3727,-2.3753,-2.3761,-2.379,-2.3818,-2.3841,-2.3877,-2.3889,-2.3916,-2.3921,-2.3907,-2.3909,-2.3917,-2.3916,-2.3941,-2.3945,-2.3936,-2.3936,-2.3936,0,-2.3549,-2.3567,-2.3605,-2.362,-2.3638,-2.3663,-2.368,-2.3704,-2.3722,-2.3756,-2.3769,-2.3798,-2.3822,-2.3865,-2.3889,-2.3917,-2.3922,-2.3929,-2.3927,-2.392,-2.3922,-2.392,-2.3922,-2.3929,-2.3929,-2.3929,-2.3929,0,-2.3561,-2.3572,-2.3597,-2.3627,-2.3647,-2.3672,-2.3696,-2.3708,-2.3736,-2.3755,-2.3784,-2.3803,-2.384,-2.3868,-2.3898,-2.3916,-2.3927,-2.393,-2.3934,-2.3928,-2.3918,-2.3923,-2.3906,-2.3929,-2.3929,-2.3929,-2.3929,-2.3929,-2.3566,-2.3582,-2.3611,-2.3639,-2.366,-2.3682,-2.37,-2.3722,-2.3746,-2.3778,-2.3791,-2.382,-2.3848,-2.389,-2.3907,-2.393,-2.3931,-2.3937,-2.3938,-2.3939,-2.3938,-2.3915,-2.3935,-2.3935,-2.3936,-2.3936,-2.3936,0,-2.3578,-2.3598,-2.3623,-2.3657,-2.3678,-2.3687,-2.3715,-2.3732,-2.3758,-2.3783,-2.3806,-2.3839,-2.3866,-2.3893,-2.3922,-2.3935,-2.3941,-2.3941,-2.394,-2.3944,-2.3935,-2.3929,-2.3936,-2.3936,-2.3936,-2.3936,-2.3936,-2.3936,-2.3587,-2.3615,-2.363,-2.3668,-2.3688,-2.3717,-2.3732,-2.3752,-2.3772,-2.3808,-2.3831,-2.3849,-2.3874,-2.3905,-2.393,-2.3937,-2.3947,-2.3946,-2.3954,-2.3945,-2.3945,-2.3944,-2.3939,-2.3948,-2.3948,-2.3962,-2.3962,-2.3962]},{"header":{"parameterUnit":"m.s-1","parameterCategory":1,"la1":30.2991,"la2":30.254,"lo1":-89.0895,"lo2":-89.0444,"dy":0.0017,"dx":0.0017,"nx":28,"ny":28,"refTime":"2023-09-01T21:00:00:Z","depth":0,"parameterNumber":3,"parameterNumberName":"V-component_of_WINDS"},"data":[0,0,0,0,0,0,0,0,0,0,0,0,0,0,0,0,0,0,0,0,0,0,0,0,0,0,0,0,0,0,0,0,0,0,0,0,0,0,0,0,0,0,0,0,0,0,0,0,0,0,0,0,0,0,0,0,0,0,3.3007,3.3007,0,3.2958,3.2958,3.2957,3.2868,3.2867,3.2865,3.2863,3.2815,3.2815,3.2815,0,0,0,0,0,0,0,0,0,0,0,0,0,3.3027,3.3027,3.3007,3.3007,3.3006,3.2958,3.2958,3.2957,3.2869,3.2867,3.2864,3.2863,3.2815,3.2815,3.2815,0,0,0,0,0,0,0,0,0,0,0,0,0,3.3002,3.3027,3.3008,3.2956,3.2951,3.2958,3.2958,3.2957,3.2869,3.2867,3.2864,3.2862,3.2814,3.2815,3.2815,3.2869,0,0,3.2817,3.2817,0,0,0,0,0,0,0,0,3.3004,3.3002,3.2964,3.296,3.2954,3.2917,3.2946,3.2927,3.287,3.29,3.2863,3.286,3.2851,3.2848,3.2844,3.2866,3.2864,3.2817,3.2817,3.2817,3.2817,0,0,0,0,0,0,0,3.3005,3.3003,3.2988,3.2964,3.2958,3.2936,3.293,3.2942,3.2891,3.2897,3.2891,3.2886,3.2847,3.2844,3.2843,3.2864,3.2817,3.2817,3.2817,3.2817,3.2926,3.2928,0,0,0,0,0,0,3.3014,3.3005,3.2989,3.2986,3.2973,3.2938,3.2931,3.2931,3.289,3.2881,3.2888,3.2882,3.2845,3.2842,3.2841,3.2899,3.2817,3.2817,3.2818,3.2923,3.2927,3.2929,0,0,0,0,0,0,3.3015,3.3014,3.2991,3.2994,3.2989,3.294,3.2942,3.2932,3.2928,3.2883,3.2874,3.2894,3.2843,3.284,3.2862,3.2896,3.2818,3.2818,3.292,3.2924,3.2928,3.3018,0,0,0,0,0,0,3.3016,3.3015,3.3034,3.2995,3.299,3.3014,3.2944,3.2933,3.2929,3.2921,3.2886,3.2878,3.284,3.2862,3.2862,3.2895,3.2818,3.2917,3.2922,3.2927,3.3011,3.3024,3.3035,0,0,0,0,0,3.3017,3.3062,3.3035,3.3034,3.3013,3.3016,3.3013,3.2968,3.2932,3.2951,3.2922,3.2879,3.2893,3.2865,3.2865,3.2898,3.2915,3.2921,3.2926,3.3006,3.3022,3.3035,0,0,0,0,0,0,3.3107,3.3056,3.3026,3.3059,3.3043,3.3001,3.3023,3.2986,3.2979,3.2971,3.2916,3.291,3.2938,3.2921,3.2891,3.2947,3.2897,3.2903,3.2957,3.2972,3.2984,3.2986,3.2819,0,0,0,0,0,3.313,3.3136,3.3092,3.3126,3.3119,3.3073,3.3072,3.3039,3.302,3.3012,3.2985,3.2968,3.2968,3.2969,3.2967,3.3009,3.3,3.3032,3.3044,3.3054,3.3059,3.3079,3.3092,3.2949,3.2949,3.2949,0,0,3.3179,3.3152,3.3159,3.3143,3.3126,3.3133,3.3067,3.3078,3.3083,3.3014,3.3032,3.3012,3.299,3.3021,3.3034,3.3008,3.3097,3.3062,3.307,3.307,3.3086,3.31,3.3112,3.2953,3.2952,3.2951,0,0,3.3271,3.3252,3.3277,3.3262,3.3237,3.3206,3.3212,3.3176,3.316,3.3177,3.3125,3.3131,3.3133,3.3118,3.3111,3.3199,3.3159,3.32,3.3261,3.3281,3.3292,3.3302,3.3332,3.3343,3.3206,3.3206,3.3207,0,3.3335,3.3344,3.3296,3.3309,3.3303,3.3241,3.3266,3.3253,3.323,3.3227,3.3198,3.3198,3.3179,3.3206,3.3227,3.3224,3.3229,3.3203,3.3295,3.3304,3.3312,3.334,3.3351,3.3211,3.3211,3.321,3.321,0,3.3423,3.343,3.3454,3.3431,3.3428,3.3448,3.3403,3.3406,3.3373,3.3346,3.3365,3.3339,3.333,3.3335,3.3304,3.3357,3.3341,3.3305,3.3252,3.3332,3.3357,3.3367,3.3219,3.3217,3.3215,3.3214,0,0,3.3569,3.3519,3.3528,3.3517,3.3485,3.349,3.3507,3.3498,3.3501,3.3487,3.3499,3.3502,3.3468,3.346,3.3427,3.3444,3.3513,3.3405,3.3403,3.3424,3.3569,3.3596,3.3609,3.3487,3.3489,3.3491,3.357,0,3.3652,3.3678,3.3635,3.367,3.3676,3.3617,3.3632,3.3614,3.3589,3.3591,3.3563,3.3566,3.3521,3.3515,3.353,3.3502,3.3541,3.3496,3.3497,3.3498,3.3503,3.3622,3.365,3.3727,3.358,3.3582,3.3583,0,3.3753,3.3743,3.3779,3.3744,3.3745,3.3759,3.3747,3.3749,3.3728,3.3708,3.37,3.3661,3.3675,3.3626,3.3645,3.3615,3.3613,3.36,3.3601,3.3598,3.3544,3.3621,3.375,3.3761,3.3598,3.3597,3.3596,0,3.3854,3.385,3.387,3.3863,3.3823,3.3834,3.3818,3.3794,3.3792,3.3781,3.3779,3.3771,3.3766,3.3761,3.372,3.3689,3.3743,3.3691,3.3727,3.3728,3.374,3.3739,3.3869,3.3742,3.3742,3.3742,3.3742,0,3.3951,3.3975,3.3914,3.3927,3.3952,3.3903,3.3929,3.3908,3.3887,3.3894,3.3844,3.3852,3.3799,3.3801,3.377,3.3789,3.3788,3.3772,3.3763,3.3776,3.3778,3.3773,3.3766,3.3745,3.3744,3.3744,3.3743,0,3.4066,3.4027,3.4045,3.4007,3.3998,3.4018,3.3984,3.3994,3.3967,3.3976,3.3976,3.3933,3.3933,3.3892,3.3884,3.3863,3.3895,3.3878,3.3902,3.3896,3.3933,3.3929,3.4063,3.4077,3.3943,3.3944,3.3946,0,3.413,3.4146,3.411,3.411,3.4097,3.41,3.4096,3.4049,3.4048,3.4025,3.4037,3.4033,3.4027,3.403,3.3998,3.3991,3.3972,3.4019,3.397,3.3982,3.397,3.3969,3.397,3.4029,3.403,3.4032,3.4033,0,3.4246,3.4226,3.4222,3.4213,3.421,3.42,3.4187,3.4191,3.4139,3.414,3.4139,3.4135,3.4126,3.4122,3.411,3.4093,3.4055,3.4049,3.4056,3.4068,3.4081,3.4073,3.3928,3.4045,3.4044,3.4043,3.4043,3.4042,3.4336,3.4348,3.4323,3.4321,3.4307,3.4296,3.4303,3.4276,3.4274,3.4263,3.4236,3.4239,3.4217,3.4196,3.4183,3.4185,3.4162,3.4173,3.4176,3.4179,3.4185,3.4082,3.4183,3.4183,3.4182,3.4182,3.4182,0,3.4448,3.443,3.4428,3.4411,3.441,3.4374,3.4357,3.4358,3.4362,3.4345,3.434,3.4338,3.4334,3.4302,3.4294,3.4302,3.4284,3.4301,3.4299,3.4296,3.4208,3.4201,3.4316,3.4316,3.4316,3.4316,3.4316,3.4316,3.4506,3.4524,3.4501,3.4511,3.4492,3.4495,3.4488,3.4478,3.4463,3.4464,3.4461,3.444,3.4416,3.4406,3.4401,3.4391,3.439,3.4413,3.4398,3.4316,3.4302,3.429,3.4283,3.4414,3.4414,3.4486,3.4487,3.4487]}]]